{"data":{"norad_id":65409,"intl_designator":"2025-192F","name":"STARLINK-35022","alt_names":[],"object_type":"PAYLOAD","status":"ACTIVE","operator":null,"country":"US","launch_date":"2025-08-31","launch_site_code":"AFETR","launch_vehicle":null,"mission":null,"orbit_class":"UNKNOWN","rcs_meters":null,"size_class":null,"mass_kg":null,"dimensions":null,"purposes":["comms"],"wikipedia_slug":null,"has_3d_model":false,"image_url":null,"decayed_at":null,"tle_current":{"epoch":"2026-09-20T21:17:17.875680Z","epoch_age_seconds":81365,"freshness":"FRESH","line1":"1 65409U 25192F   26263.88701245  .00015985  00000+0  52549-3 0  9992","line2":"2 65409  53.1595  43.9897 0001030  76.2954 283.8162 15.31716853 59296","mean_motion":15.31716853,"eccentricity":0.000103,"inclination_deg":53.1595,"raan_deg":43.9897,"arg_perigee_deg":76.2954,"mean_anomaly_deg":283.8162,"bstar":0.00052549,"rev_number":5929,"period_min":94.012153563476,"perigee_km":469.98432861418,"apogee_km":471.39518692628,"semimajor_km":6848.8267577702,"source":"CELESTRAK","updated_at":"2026-09-21T09:00:35.603274Z"}}}